Location: Slave Lake
(55.2830°N, 114.7830°W)
Time: 02:26:35
(UTC-06:00)

Amateur Radio Satellites - All Passes

Search period start: 24 September 2017 01:56
Search period end: 25 September 2017 01:56
Location: Slave Lake, 55.2830°N, 114.7830°W

Satellite Date Start Highest point End Downlink Frequencies (MHz)
Time Altitude Azimuth
ISS 24 Sep 01:58:11 02:01:16 37° 192° (SSW) 02:04:21 437.550
QB50P2 24 Sep 01:59:00 02:03:19 86° 284° (WNW) 02:07:37 145.880/145.840
BUGSAT 1 24 Sep 02:00:59 02:04:34 26° 94° (E) 02:08:09 437.445
AIST 2D 24 Sep 02:02:11 02:05:21 31° 294° (WNW) 02:08:30 435.315
SPROUT 24 Sep 02:05:13 02:08:43 25° 268° (W) 02:12:16 437.525
VELOX 1 24 Sep 02:08:20 02:12:13 30° 265° (W) 02:16:07 145.980
50 SAT 24 Sep 02:12:31 02:15:46 51° 259° (W) 02:19:02 437.505
PCSat 24 Sep 02:15:47 02:17:57 12° 257° (WSW) 02:20:07 145.827
AO-85 24 Sep 02:17:48 02:21:06 23° 7° (N) 02:24:34 145.980
O/OREOS (USA 219) 24 Sep 02:28:23 02:30:46 14° 99° (E) 02:33:10 437.305
BEESAT 24 Sep 02:31:05 02:35:00 26° 57° (ENE) 02:38:56 436.000
NANOSAT C BR1 24 Sep 02:34:13 02:38:22 51° 292° (WNW) 02:42:30 145.865
nSIGHT-1 24 Sep 02:37:00 02:39:50 27° 201° (SSW) 02:42:39 .
MOZHAYETS 4 24 Sep 02:58:32 03:02:46 36° 63° (ENE) 03:07:02
DUCHIFAT 1 24 Sep 03:02:40 03:06:31 33° 297° (WNW) 03:10:21 145.980
UKube-1 24 Sep 03:07:50 03:11:48 35° 263° (W) 03:15:47 .
YUBILEINY 24 Sep 03:12:43 03:17:22 16° 294° (WNW) 03:22:02 435.215
Gurwin Techsat 1B 24 Sep 03:14:34 03:19:40 43° 98° (E) 03:24:43 435.225
DX 1 24 Sep 03:16:28 03:19:52 22° 268° (W) 03:23:19 434.975-435.025
POLYITAN 1 24 Sep 03:17:24 03:20:47 23° 302° (WNW) 03:24:09 437.675
BEESAT 3 24 Sep 03:19:21 03:23:13 42° 31° (NNE) 03:27:02 437.485
EO-79 24 Sep 03:21:39 03:24:54 21° 303° (WNW) 03:28:09 145.935-145.965
M-CUBED/EXP-1 PRIME 24 Sep 03:23:37 03:27:00 61° 296° (WNW) 03:30:14 437.505
Oscar 19 24 Sep 03:26:21 03:31:33 71° 104° (ESE) 03:36:42 437.125/150
CUBESAT XI-V 24 Sep 03:26:57 03:30:26 21° 55° (NE) 03:33:55 437.345
BEESAT 2 24 Sep 03:27:30 03:31:08 29° 22° (NNE) 03:34:44 435.950
ITUPSAT 1 24 Sep 03:31:14 03:35:59 68° 69° (ENE) 03:40:47 437.325
ISS 24 Sep 03:35:00 03:37:09 16° 211° (SSW) 03:39:19 437.550
QB50P2 24 Sep 03:35:50 03:38:31 16° 307° (NW) 03:41:11 145.880/145.840
BUGSAT 1 24 Sep 03:36:05 03:40:07 46° 293° (WNW) 03:44:09 437.445
AO-85 24 Sep 03:58:25 04:02:25 42° 30° (NNE) 04:06:43 145.980
O/OREOS (USA 219) 24 Sep 04:04:54 04:09:25 81° 119° (ESE) 04:14:01 437.305
BEESAT 24 Sep 04:07:43 04:12:27 64° 257° (WSW) 04:17:14 436.000
NANOSAT C BR1 24 Sep 04:12:08 04:13:10 11° 312° (NW) 04:14:13 145.865
RS-15 24 Sep 04:15:41 04:21:43 15° 90° (E) 04:27:44 29.354- 29.394
ITAMSAT 1 24 Sep 04:32:26 04:36:48 26° 92° (E) 04:41:09 435.822/435.867
AO-7 24 Sep 04:34:59 04:42:35 37° 95° (E) 04:50:07 .
MOZHAYETS 4 24 Sep 04:35:33 04:39:55 40° 263° (W) 04:44:19
KKS-1 24 Sep 04:51:54 04:56:01 40° 64° (ENE) 05:00:11 437.445
Gurwin Techsat 1B 24 Sep 04:54:40 04:59:38 41° 298° (WNW) 05:04:35 435.225
BEESAT 3 24 Sep 04:57:00 05:00:52 45° 232° (SW) 05:04:39 437.485
M-CUBED/EXP-1 PRIME 24 Sep 05:00:04 05:00:45 10° 317° (NW) 05:01:26 437.505
CUBESAT XI-V 24 Sep 05:02:35 05:07:19 80° 256° (WSW) 05:12:02 437.345
BEESAT 2 24 Sep 05:05:14 05:09:20 88° 225° (SW) 05:13:23 435.950
Oscar 19 24 Sep 05:06:14 05:10:29 26° 305° (NW) 05:14:43 437.125/150
ITUPSAT 1 24 Sep 05:10:33 05:14:17 22° 270° (W) 05:18:03 437.325
STARS 24 Sep 05:15:05 05:18:56 32° 61° (ENE) 05:22:50 437.465
AO-85 24 Sep 05:38:46 05:42:58 52° 231° (SW) 05:47:28 145.980
O/OREOS (USA 219) 24 Sep 05:45:38 05:49:24 25° 322° (NW) 05:53:11 437.305
BEESAT 24 Sep 05:49:41 05:51:13 11° 277° (W) 05:52:45 436.000
DOVE 4 24 Sep 06:09:20 06:12:38 22° 91° (E) 06:16:01 437.250
ITAMSAT 1 24 Sep 06:11:32 06:16:41 64° 292° (WNW) 06:21:51 435.822/435.867
RS-15 24 Sep 06:19:25 06:31:01 51° 116° (ESE) 06:42:33 29.354- 29.394
CUTE-I 24 Sep 06:25:55 06:27:49 12° 81° (E) 06:29:43 437.470
AO-7 24 Sep 06:27:45 06:36:02 73° 298° (WNW) 06:44:15 .
KKS-1 24 Sep 06:28:40 06:32:40 33° 264° (W) 06:36:43 437.445
Gurwin Techsat 1B 24 Sep 06:36:35 06:38:19 12° 320° (NW) 06:40:04 435.225
CUBESAT XI-V 24 Sep 06:42:57 06:45:28 14° 275° (W) 06:47:59 437.345
BEESAT 2 24 Sep 06:43:51 06:46:32 17° 244° (WSW) 06:49:12 435.950
STRAND 1 24 Sep 06:46:04 06:50:27 30° 58° (ENE) 06:54:52 437.568
XW-2D 24 Sep 06:50:14 06:52:47 17° 89° (E) 06:55:17 145.860 - 145.880
STARS 24 Sep 06:51:03 06:55:12 42° 261° (W) 06:59:23 437.465
XW-2F 24 Sep 07:01:54 07:04:45 20° 91° (E) 07:07:34 145.980 - 146.000
XW-2B 24 Sep 07:02:20 07:05:17 21° 91° (E) 07:08:11 145.730 - 145.750
HO-68 24 Sep 07:12:42 07:16:43 15° 80° (E) 07:20:44 435.675
AO-85 24 Sep 07:21:40 07:22:34 11° 249° (WSW) 07:23:29 145.980
NUDT-PHONESAT 24 Sep 07:23:00 07:26:07 24° 93° (E) 07:29:12 437.300
XW-2C 24 Sep 07:23:23 07:26:53 32° 96° (E) 07:30:20 145.795 - 145.815
FO-29 24 Sep 07:23:45 07:26:15 13° 44° (NE) 07:28:42 435.910
O/OREOS (USA 219) 24 Sep 07:29:06 07:30:29 11° 347° (NNW) 07:31:53 437.305
LilacSat-2 24 Sep 07:36:18 07:40:03 45° 99° (E) 07:43:44 437.200
SEEDS 24 Sep 07:44:43 07:44:59 10° 82° (E) 07:45:15 437.485
DOVE 4 24 Sep 07:46:34 07:50:40 55° 290° (WNW) 07:54:54 437.250
ITAMSAT 1 24 Sep 07:52:08 07:55:18 17° 313° (NW) 07:58:28 435.822/435.867
KAITUO 1B 24 Sep 07:52:13 07:55:53 47° 100° (E) 07:59:30 145.475/437.950
CUTE-I 24 Sep 08:03:44 08:09:01 60° 102° (ESE) 08:14:17 437.470
CUTE 1.7 + AOD 2 24 Sep 08:11:22 08:14:58 26° 92° (E) 08:18:32 437.475
AO-7 24 Sep 08:20:58 08:27:40 29° 322° (NW) 08:34:22 .
XW-2D 24 Sep 08:23:33 08:27:22 63° 288° (WNW) 08:31:07 145.860 - 145.880
STRAND 1 24 Sep 08:24:21 08:29:23 59° 258° (WSW) 08:34:28 437.568
RS-15 24 Sep 08:30:41 08:43:07 78° 324° (NW) 08:55:22 29.354- 29.394
XW-2F 24 Sep 08:35:26 08:39:10 52° 290° (WNW) 08:42:51 145.980 - 146.000
XW-2B 24 Sep 08:36:00 08:39:44 50° 291° (WNW) 08:43:25 145.730 - 145.750
CUBEBUG 2 24 Sep 08:46:56 08:51:16 36° 95° (E) 08:55:38 437.445
UNISAT 6 24 Sep 08:50:51 08:53:46 17° 53° (NE) 08:56:43 437.425
UWE-3 24 Sep 08:52:37 08:56:35 27° 92° (E) 09:00:32 435.000/436.395/437.385
NUDT-PHONESAT 24 Sep 08:56:36 09:00:09 40° 293° (WNW) 09:03:39 437.300
XW-2C 24 Sep 08:57:37 09:01:04 32° 295° (WNW) 09:04:28 145.795 - 145.815
HO-68 24 Sep 08:58:53 09:06:02 61° 103° (ESE) 09:13:08 435.675
XW-2A 24 Sep 09:00:08 09:03:15 31° 96° (E) 09:06:20 145.665 - 145.685
FO-29 24 Sep 09:05:05 09:10:23 54° 66° (ENE) 09:15:26 435.910
O/OREOS (USA 219) 24 Sep 09:10:45 09:12:05 11° 13° (NNE) 09:13:26 437.305
LilacSat-2 24 Sep 09:10:58 09:14:07 24° 299° (WNW) 09:17:15 437.200
TIGRISAT 24 Sep 09:13:34 09:17:04 23° 57° (ENE) 09:20:38 435.000
SEEDS 24 Sep 09:17:20 09:21:31 67° 101° (ESE) 09:25:41 437.485
DOVE 4 24 Sep 09:26:27 09:27:34 11° 311° (NW) 09:28:41 437.250
KAITUO 1B 24 Sep 09:26:39 09:29:39 22° 299° (WNW) 09:32:36 145.475/437.950
Oscar 11 24 Sep 09:33:53 09:37:25 23° 91° (E) 09:40:54 .
PRISM 24 Sep 09:35:13 09:38:22 22° 58° (ENE) 09:41:30 437.425
AO-73 24 Sep 09:35:17 09:39:27 33° 95° (E) 09:43:35 145.935
AAUSAT CUBESAT 2 24 Sep 09:37:53 09:41:57 52° 100° (E) 09:45:58 437.432
ZACube-1 24 Sep 09:38:30 09:42:49 38° 96° (E) 09:47:07 437.345
CUTE-I 24 Sep 09:44:11 09:48:50 31° 303° (WNW) 09:53:28 437.470
CUTE 1.7 + AOD 2 24 Sep 09:46:55 09:51:01 47° 293° (WNW) 09:55:04 437.475
XW-2D 24 Sep 09:59:43 10:00:48 11° 309° (NW) 10:01:52 145.860 - 145.880
STRAND 1 24 Sep 10:08:12 10:09:42 11° 279° (W) 10:11:12 437.568
AO-7 24 Sep 10:13:26 10:17:55 16° 349° (N) 10:22:23 .
Max Valier Satellite 24 Sep 10:20:32 10:22:17 13° 86° (E) 10:24:02 145.860
CUBEBUG 2 24 Sep 10:23:33 10:27:56 41° 295° (WNW) 10:32:22 437.445
UNISAT 6 24 Sep 10:25:27 10:29:51 87° 73° (ENE) 10:34:24 437.425
UWE-3 24 Sep 10:28:45 10:33:18 54° 291° (WNW) 10:37:51 435.000/436.395/437.385
XW-2A 24 Sep 10:32:57 10:35:56 27° 296° (WNW) 10:38:53 145.665 - 145.685
RS-15 24 Sep 10:45:19 10:57:27 55° 355° (N) 11:09:11 29.354- 29.394
HO-68 24 Sep 10:46:56 10:53:36 42° 305° (NW) 11:00:14 435.675
TIGRISAT 24 Sep 10:49:02 10:53:23 64° 258° (WSW) 10:57:54 435.000
O/OREOS (USA 219) 24 Sep 10:49:26 10:53:12 24° 38° (NE) 10:56:58 437.305
FO-29 24 Sep 10:51:04 10:55:50 30° 266° (W) 11:00:26 435.910
DUCHIFAT 1 24 Sep 10:52:16 10:54:23 14° 51° (NE) 10:56:29 145.980
SEEDS 24 Sep 10:53:42 10:56:50 21° 302° (WNW) 10:59:56 437.485
DELFI C3 24 Sep 10:59:28 11:03:09 37° 97° (E) 11:06:48 145.870
POLYITAN 1 24 Sep 11:06:01 11:09:06 20° 56° (ENE) 11:12:14 437.675
M-CUBED/EXP-1 PRIME 24 Sep 11:08:58 11:11:12 15° 47° (NE) 11:13:20 437.505
PRISM 24 Sep 11:09:16 11:13:19 60° 258° (WSW) 11:17:23 437.425
Oscar 11 24 Sep 11:09:35 11:13:52 55° 291° (WNW) 11:18:06 .
AIST 2D 24 Sep 11:09:49 11:13:03 33° 66° (ENE) 11:16:17 435.315
EO-79 24 Sep 11:09:56 11:13:08 21° 57° (ENE) 11:16:21 145.935-145.965
AO-73 24 Sep 11:11:27 11:15:47 42° 294° (WNW) 11:20:05 145.935
AAUSAT CUBESAT 2 24 Sep 11:13:49 11:17:09 24° 300° (WNW) 11:20:28 437.432
ZACube-1 24 Sep 11:14:52 11:19:06 37° 296° (WNW) 11:23:18 437.345
EO-88 24 Sep 11:18:18 11:21:42 34° 97° (E) 11:25:03 145.990 - 145.960
QB50P2 24 Sep 11:23:18 11:26:55 28° 61° (ENE) 11:30:35 145.880/145.840
Oscar 19 24 Sep 11:36:46 11:38:27 12° 41° (NE) 11:40:08 437.125/150
ESTCUBE 1 24 Sep 11:50:10 11:52:03 12° 84° (E) 11:53:55 437.505/2401.250
Max Valier Satellite 24 Sep 11:52:53 11:56:40 83° 286° (WNW) 12:00:25 145.860
NANOSAT C BR1 24 Sep 11:57:23 12:01:24 45° 66° (ENE) 12:05:27 145.865
AO-7 24 Sep 12:02:49 12:07:39 17° 17° (NNE) 12:12:29 .
UNISAT 6 24 Sep 12:04:37 12:07:15 15° 274° (W) 12:09:57 437.425
UWE-3 24 Sep 12:06:53 12:08:50 13° 312° (NW) 12:10:47 435.000/436.395/437.385
LO-87 24 Sep 12:12:09 12:15:02 22° 93° (E) 12:17:54 145.935 - 145.965
DUCHIFAT 1 24 Sep 12:25:09 12:29:19 70° 71° (ENE) 12:33:33 145.980
YUBILEINY 24 Sep 12:27:53 12:35:42 40° 83° (E) 12:43:32 435.215
O/OREOS (USA 219) 24 Sep 12:28:35 12:33:12 85° 243° (WSW) 12:37:49 437.305
TIGRISAT 24 Sep 12:30:16 12:31:03 10° 279° (W) 12:31:52 435.000
DELFI C3 24 Sep 12:34:25 12:37:50 29° 297° (WNW) 12:41:14 145.870
HO-68 24 Sep 12:35:31 12:39:38 16° 329° (NNW) 12:43:46 435.675
POLYITAN 1 24 Sep 12:40:15 12:44:28 72° 256° (WSW) 12:48:45 437.675
M-CUBED/EXP-1 PRIME 24 Sep 12:41:01 12:45:08 76° 65° (ENE) 12:48:57 437.505
AIST 2D 24 Sep 12:43:12 12:46:17 27° 266° (W) 12:49:23 435.315
EO-79 24 Sep 12:44:20 12:48:31 66° 257° (WSW) 12:52:46 145.935-145.965
Oscar 11 24 Sep 12:47:37 12:49:07 12° 312° (NW) 12:50:36 .
EO-88 24 Sep 12:52:06 12:55:18 28° 296° (WNW) 12:58:29 145.990 - 145.960
BUGSAT 1 24 Sep 12:57:13 13:01:05 46° 67° (ENE) 13:05:03 437.445
QB50P2 24 Sep 12:58:30 13:02:33 45° 261° (W) 13:06:41 145.880/145.840
RS-15 24 Sep 12:59:51 13:12:07 67° 27° (NNE) 13:23:48 29.354- 29.394
Gurwin Techsat 1B 24 Sep 13:04:15 13:08:47 29° 57° (ENE) 13:13:20 435.225
Oscar 19 24 Sep 13:11:41 13:16:33 42° 62° (ENE) 13:21:26 437.125/150
ESTCUBE 1 24 Sep 13:25:09 13:29:41 74° 104° (ESE) 13:34:10 437.505/2401.250
Max Valier Satellite 24 Sep 13:28:05 13:29:54 13° 306° (NW) 13:31:43 145.860
NANOSAT C BR1 24 Sep 13:33:41 13:37:17 27° 266° (W) 13:40:56 145.865
SPROUT 24 Sep 13:42:24 13:46:21 35° 96° (E) 13:50:18 437.525
LO-87 24 Sep 13:45:12 13:48:38 42° 292° (WNW) 13:52:03 145.935 - 145.965
VELOX 1 24 Sep 13:50:14 13:54:10 31° 95° (E) 13:58:05 145.980
AO-7 24 Sep 13:50:58 13:58:07 34° 43° (NE) 14:05:16 .
DUCHIFAT 1 24 Sep 14:02:36 14:05:28 18° 271° (W) 14:08:22 145.980
O/OREOS (USA 219) 24 Sep 14:09:15 14:11:56 15° 260° (W) 14:14:36 437.305
M-CUBED/EXP-1 PRIME 24 Sep 14:17:20 14:19:56 16° 263° (W) 14:22:26 437.505
POLYITAN 1 24 Sep 14:19:48 14:21:04 11° 276° (W) 14:22:20 437.675
ITAMSAT 1 24 Sep 14:20:14 14:23:50 19° 49° (NE) 14:27:27 435.822/435.867
YUBILEINY 24 Sep 14:23:28 14:32:07 66° 288° (WNW) 14:40:49 435.215
EO-79 24 Sep 14:24:48 14:25:09 10° 277° (W) 14:25:30 145.935-145.965
BUGSAT 1 24 Sep 14:33:19 14:36:41 25° 267° (W) 14:40:05 437.445
SO-50 24 Sep 14:35:06 14:38:21 20° 116° (ESE) 14:41:36 436.795
Gurwin Techsat 1B 24 Sep 14:43:10 14:48:26 64° 257° (WSW) 14:53:45 435.225
UKube-1 24 Sep 14:47:18 14:50:46 23° 92° (E) 14:54:13 .
Oscar 19 24 Sep 14:51:00 14:55:55 41° 263° (W) 15:00:51 437.125/150
NO-84 24 Sep 14:53:42 14:57:02 32° 150° (SSE) 15:00:08 435.350 FM
DX 1 24 Sep 14:55:56 15:00:00 38° 98° (E) 15:04:03 434.975-435.025
50 SAT 24 Sep 14:57:51 15:01:05 48° 101° (E) 15:04:18 437.505
ESTCUBE 1 24 Sep 15:02:40 15:06:03 21° 304° (NW) 15:09:25 437.505/2401.250
RS-15 24 Sep 15:12:59 15:24:52 65° 237° (WSW) 15:36:08 29.354- 29.394
SPROUT 24 Sep 15:18:20 15:22:17 36° 296° (WNW) 15:26:14 437.525
PCSat 24 Sep 15:19:22 15:23:58 29° 114° (ESE) 15:28:36 145.827
VELOX 1 24 Sep 15:26:36 15:30:45 42° 295° (WNW) 15:34:53 145.980
ITUPSAT 1 24 Sep 15:27:14 15:27:48 10° 81° (E) 15:28:23 437.325
AO-7 24 Sep 15:41:44 15:50:06 88° 63° (ENE) 15:58:28 .
ITAMSAT 1 24 Sep 15:57:26 16:02:36 79° 71° (ENE) 16:07:49 435.822/435.867
BEESAT 24 Sep 16:00:52 16:04:25 20° 89° (E) 16:07:56 436.000
HO-68 24 Sep 16:06:31 16:09:19 13° 22° (NNE) 16:12:08 435.675
SO-50 24 Sep 16:13:45 16:18:15 90° 139° (SE) 16:22:49 436.795
CUTE-I 24 Sep 16:18:16 16:19:47 11° 39° (NE) 16:21:17 437.470
MOZHAYETS 4 24 Sep 16:22:52 16:26:59 30° 94° (E) 16:31:04
UKube-1 24 Sep 16:22:52 16:27:06 55° 292° (WNW) 16:31:19 .
YUBILEINY 24 Sep 16:24:22 16:30:56 23° 315° (NW) 16:37:32 435.215
Gurwin Techsat 1B 24 Sep 16:27:10 16:29:28 13° 278° (W) 16:31:48 435.225
NO-84 24 Sep 16:30:39 16:34:13 78° 169° (S) 16:37:28 435.350 FM
50 SAT 24 Sep 16:30:57 16:33:18 18° 300° (WNW) 16:35:39 437.505
DX 1 24 Sep 16:32:14 16:36:10 34° 298° (WNW) 16:40:05 434.975-435.025
CUBESAT XI-V 24 Sep 16:52:41 16:55:35 16° 86° (E) 16:58:29 437.345
LilacSat-2 24 Sep 16:53:34 16:54:54 12° 52° (NE) 16:56:14 437.200
PCSat 24 Sep 17:01:33 17:07:00 73° 316° (NW) 17:12:28 145.827
ITUPSAT 1 24 Sep 17:01:55 17:06:42 58° 101° (ESE) 17:11:27 437.325
KAITUO 1B 24 Sep 17:07:50 17:09:01 11° 52° (NE) 17:10:11 145.475/437.950
DOVE 4 24 Sep 17:21:35 17:25:44 49° 68° (ENE) 17:29:47 437.250
RS-15 24 Sep 17:26:40 17:34:50 22° 263° (W) 17:42:46 29.354- 29.394
AO-7 24 Sep 17:36:54 17:43:54 29° 269° (W) 17:50:57 .
BEESAT 24 Sep 17:37:55 17:42:44 75° 289° (WNW) 17:47:31 436.000
XW-2D 24 Sep 17:37:57 17:41:06 24° 61° (ENE) 17:44:15 145.860 - 145.880
ITAMSAT 1 24 Sep 17:38:50 17:42:42 21° 271° (W) 17:46:35 435.822/435.867
HO-68 24 Sep 17:48:58 17:54:54 30° 47° (NE) 18:00:52 435.675
XW-2F 24 Sep 17:49:13 17:52:31 28° 63° (ENE) 17:55:50 145.980 - 146.000
XW-2B 24 Sep 17:50:04 17:53:26 29° 64° (ENE) 17:56:49 145.730 - 145.750
CUTE-I 24 Sep 17:53:38 17:58:32 39° 61° (ENE) 18:03:27 437.470
SO-50 24 Sep 17:55:07 17:59:12 33° 340° (NNW) 18:03:21 436.795
MOZHAYETS 4 24 Sep 17:59:51 18:04:20 47° 294° (WNW) 18:08:46
UKube-1 24 Sep 18:00:41 18:02:16 12° 313° (NW) 18:03:50 .
NO-84 24 Sep 18:08:12 18:11:34 78° 190° (S) 18:14:40 435.350 FM
NUDT-PHONESAT 24 Sep 18:08:35 18:11:59 33° 65° (ENE) 18:15:24 437.300
XW-2C 24 Sep 18:11:05 18:14:46 45° 68° (ENE) 18:18:30 145.795 - 145.815
KKS-1 24 Sep 18:11:43 18:15:35 28° 94° (E) 18:19:27 437.445
CUBEBUG 2 24 Sep 18:18:09 18:20:18 14° 49° (NE) 18:22:29 437.445
UWE-3 24 Sep 18:24:05 18:25:01 11° 46° (NE) 18:25:57 435.000/436.395/437.385
LilacSat-2 24 Sep 18:24:35 18:28:27 65° 71° (ENE) 18:32:19 437.200
CUBESAT XI-V 24 Sep 18:28:57 18:33:39 88° 280° (W) 18:38:16 437.345
YUBILEINY 24 Sep 18:30:48 18:32:17 10° 348° (NNW) 18:33:47 435.215
STARS 24 Sep 18:33:04 18:36:28 21° 91° (E) 18:39:51 437.465
KAITUO 1B 24 Sep 18:38:31 18:42:17 65° 72° (ENE) 18:46:04 145.475/437.950
ITUPSAT 1 24 Sep 18:40:10 18:44:16 28° 302° (WNW) 18:48:22 437.325
SEEDS 24 Sep 18:41:27 18:44:30 20° 57° (ENE) 18:47:34 437.485
PCSat 24 Sep 18:46:28 18:51:14 30° 339° (NNW) 18:56:01 145.827
DOVE 4 24 Sep 19:00:12 19:03:43 24° 267° (W) 19:07:10 437.250
AAUSAT CUBESAT 2 24 Sep 19:01:13 19:03:44 16° 54° (NE) 19:06:15 437.432
AO-73 24 Sep 19:04:18 19:06:15 13° 49° (NE) 19:08:12 145.935
ZACube-1 24 Sep 19:07:21 19:09:44 14° 50° (NE) 19:12:08 437.345
CUTE 1.7 + AOD 2 24 Sep 19:10:27 19:14:33 45° 67° (ENE) 19:18:40 437.475
XW-2D 24 Sep 19:11:22 19:15:05 45° 261° (W) 19:18:49 145.860 - 145.880
BEESAT 24 Sep 19:16:45 19:19:47 17° 310° (NW) 19:22:51 436.000
XW-2F 24 Sep 19:22:56 19:26:32 38° 263° (W) 19:30:10 145.980 - 146.000
XW-2B 24 Sep 19:23:58 19:27:33 36° 263° (W) 19:31:10 145.730 - 145.750
CUTE-I 24 Sep 19:33:29 19:38:34 45° 262° (W) 19:43:41 437.470
HO-68 24 Sep 19:34:45 19:41:55 89° 71° (ENE) 19:49:10 435.675
SO-50 24 Sep 19:36:59 19:40:48 26° 4° (N) 19:44:38 436.795
XW-2A 24 Sep 19:37:48 19:40:57 35° 67° (ENE) 19:44:08 145.665 - 145.685
MOZHAYETS 4 24 Sep 19:39:05 19:40:28 11° 315° (NW) 19:41:51
NUDT-PHONESAT 24 Sep 19:42:31 19:45:52 30° 265° (W) 19:49:16 437.300
NO-84 24 Sep 19:45:49 19:48:38 29° 212° (SSW) 19:51:16 435.350 FM
XW-2C 24 Sep 19:46:03 19:49:10 23° 268° (W) 19:52:18 145.795 - 145.815
KKS-1 24 Sep 19:48:05 19:52:21 47° 294° (WNW) 19:56:37 437.445
CUBEBUG 2 24 Sep 19:51:48 19:56:05 65° 71° (ENE) 20:00:33 437.445
UWE-3 24 Sep 19:56:14 20:00:26 47° 67° (ENE) 20:04:46 435.000/436.395/437.385
LilacSat-2 24 Sep 20:00:33 20:03:08 17° 271° (W) 20:05:44 437.200
CUBESAT XI-V 24 Sep 20:07:16 20:10:25 18° 307° (NW) 20:13:32 437.345
STARS 24 Sep 20:08:50 20:13:12 62° 290° (WNW) 20:17:33 437.465
KAITUO 1B 24 Sep 20:14:15 20:16:41 16° 271° (W) 20:19:09 145.475/437.950
SEEDS 24 Sep 20:15:31 20:19:46 73° 257° (WSW) 20:24:02 437.485
DELFI C3 24 Sep 20:20:11 20:21:07 11° 50° (NE) 20:22:02 145.870
STRAND 1 24 Sep 20:27:26 20:31:53 29° 93° (E) 20:36:20 437.568
BEESAT 3 24 Sep 20:30:01 20:33:24 26° 121° (ESE) 20:36:49 437.485
YUBILEINY 24 Sep 20:31:00 20:34:36 13° 24° (NNE) 20:38:11 435.215
PCSat 24 Sep 20:31:49 20:36:13 24° 5° (N) 20:40:36 145.827
AAUSAT CUBESAT 2 24 Sep 20:34:26 20:38:37 88° 74° (ENE) 20:42:48 437.432
Oscar 11 24 Sep 20:35:09 20:39:16 43° 66° (ENE) 20:43:26 .
AO-73 24 Sep 20:37:16 20:41:35 58° 70° (ENE) 20:46:03 145.935
ZACube-1 24 Sep 20:40:51 20:45:13 69° 71° (ENE) 20:49:44 437.345
BEESAT 2 24 Sep 20:41:51 20:43:57 14° 114° (ESE) 20:46:05 435.950
CUTE 1.7 + AOD 2 24 Sep 20:46:53 20:50:34 27° 267° (W) 20:54:17 437.475
Tancredo 1 24 Sep 20:55:42 20:57:24 15° 153° (SSE) 20:59:06 437.200
Max Valier Satellite 24 Sep 21:05:50 21:08:27 18° 58° (ENE) 21:11:04 145.860
XW-2A 24 Sep 21:10:54 21:13:46 24° 266° (W) 21:16:38 145.665 - 145.685
SO-50 24 Sep 21:17:53 21:22:14 42° 28° (NNE) 21:26:38 436.795
HO-68 24 Sep 21:24:52 21:30:36 25° 272° (W) 21:36:24 435.675
KKS-1 24 Sep 21:26:53 21:27:56 11° 315° (NW) 21:28:58 437.445
CUBEBUG 2 24 Sep 21:29:56 21:33:10 20° 272° (W) 21:36:31 437.445
UWE-3 24 Sep 21:33:19 21:37:06 28° 268° (W) 21:41:01 435.000/436.395/437.385
AO-85 24 Sep 21:39:55 21:43:32 38° 126° (SE) 21:47:17 145.980
STARS 24 Sep 21:46:40 21:48:45 13° 311° (NW) 21:50:49 437.465
FO-29 24 Sep 21:50:17 21:54:38 24° 91° (E) 21:59:17 435.910
DELFI C3 24 Sep 21:51:12 21:55:05 58° 70° (ENE) 21:58:58 145.870
SEEDS 24 Sep 21:54:55 21:56:15 11° 277° (W) 21:57:34 437.485
ISS 24 Sep 21:55:07 21:57:03 15° 147° (SSE) 21:58:59 437.550
EO-88 24 Sep 22:02:26 22:05:56 44° 68° (ENE) 22:09:29 145.990 - 145.960
STRAND 1 24 Sep 22:06:21 22:11:24 58° 293° (WNW) 22:16:27 437.568
BEESAT 3 24 Sep 22:06:41 22:10:42 64° 322° (NW) 22:14:45 437.485
UNISAT 6 24 Sep 22:11:01 22:13:12 13° 84° (E) 22:15:22 437.425
Oscar 11 24 Sep 22:11:43 22:15:33 30° 266° (W) 22:19:26 .
AAUSAT CUBESAT 2 24 Sep 22:12:27 22:14:41 14° 274° (W) 22:16:55 437.432
AO-73 24 Sep 22:14:41 22:18:12 23° 270° (W) 22:21:47 145.935
PCSat 24 Sep 22:15:53 22:21:00 39° 30° (NNE) 22:26:05 145.827
BEESAT 2 24 Sep 22:17:00 22:21:02 74° 133° (SE) 22:25:07 435.950
ZACube-1 24 Sep 22:18:45 22:21:59 20° 272° (W) 22:25:18 437.345
YUBILEINY 24 Sep 22:27:30 22:35:09 32° 55° (NE) 22:42:47 435.215
Tancredo 1 24 Sep 22:28:53 22:31:22 34° 172° (S) 22:33:51 437.200
nSIGHT-1 24 Sep 22:31:00 22:33:37 23° 155° (SSE) 22:36:15 .
TIGRISAT 24 Sep 22:33:32 22:36:49 19° 88° (E) 22:40:06 435.000
Max Valier Satellite 24 Sep 22:38:12 22:41:54 63° 258° (WSW) 22:45:39 145.860
PRISM 24 Sep 22:44:54 22:46:20 12° 85° (E) 22:47:44 437.425
LO-87 24 Sep 22:54:49 22:57:52 27° 64° (ENE) 23:00:56 145.935 - 145.965
ESTCUBE 1 24 Sep 22:55:37 22:59:28 28° 60° (ENE) 23:03:19 437.505/2401.250
SO-50 24 Sep 22:58:24 23:02:53 57° 230° (SW) 23:07:25 436.795
SPROUT 24 Sep 23:09:19 23:11:19 13° 50° (NE) 23:13:18 437.525
AO-85 24 Sep 23:20:05 23:23:53 46° 328° (NNW) 23:27:52 145.980
VELOX 1 24 Sep 23:20:26 23:22:41 14° 50° (NE) 23:24:56 145.980
DELFI C3 24 Sep 23:27:20 23:30:12 19° 270° (W) 23:33:04 145.870
ISS 24 Sep 23:29:51 23:32:54 36° 166° (SSE) 23:35:58 437.550
FO-29 24 Sep 23:34:57 23:40:17 73° 290° (WNW) 23:46:08 435.910
EO-88 24 Sep 23:36:54 23:39:48 22° 268° (W) 23:42:43 145.990 - 145.960
BEESAT 3 24 Sep 23:45:32 23:48:56 25° 344° (NNW) 23:52:19 437.485
UNISAT 6 24 Sep 23:46:03 23:50:44 73° 104° (ESE) 23:55:25 437.425
STRAND 1 24 Sep 23:46:51 23:49:39 15° 314° (NW) 23:52:27 437.568
BEESAT 2 24 Sep 23:55:25 23:59:07 32° 335° (NNW) 00:02:51 435.950
PCSat 24 Sep 23:59:23 00:04:49 71° 233° (SW) 00:10:12 145.827
AIST 2D 25 Sep 00:01:09 00:03:21 15° 89° (E) 00:05:31 435.315
Tancredo 1 25 Sep 00:03:03 00:05:30 31° 191° (SSW) 00:07:57 437.200
nSIGHT-1 25 Sep 00:06:24 00:09:30 42° 174° (S) 00:12:37 .
TIGRISAT 25 Sep 00:09:22 00:14:03 79° 288° (WNW) 00:18:46 435.000
UKube-1 25 Sep 00:16:14 00:17:12 11° 46° (NE) 00:18:11 .
PRISM 25 Sep 00:18:14 00:22:19 79° 105° (ESE) 00:26:22 437.425
POLYITAN 1 25 Sep 00:19:11 00:21:03 12° 85° (E) 00:22:54 437.675
EO-79 25 Sep 00:22:51 00:24:58 13° 86° (E) 00:27:06 145.935-145.965
DX 1 25 Sep 00:24:09 00:26:49 16° 52° (NE) 00:29:30 434.975-435.025
YUBILEINY 25 Sep 00:24:21 00:33:08 86° 260° (W) 00:41:54 435.215
LO-87 25 Sep 00:28:00 00:31:13 33° 263° (W) 00:34:29 145.935 - 145.965
ESTCUBE 1 25 Sep 00:31:37 00:36:03 53° 259° (W) 00:40:31 437.505/2401.250
QB50P2 25 Sep 00:36:18 00:39:23 19° 89° (E) 00:42:28 145.880/145.840
SO-50 25 Sep 00:40:48 00:42:28 12° 250° (WSW) 00:44:08 436.795
SPROUT 25 Sep 00:42:14 00:46:26 66° 71° (ENE) 00:50:41 437.525
VELOX 1 25 Sep 00:54:01 00:58:23 67° 70° (ENE) 01:02:46 145.980
AO-85 25 Sep 01:01:53 01:05:09 23° 352° (N) 01:08:34 145.980
ISS 25 Sep 01:05:54 01:09:03 42° 186° (S) 01:12:12 437.550
NANOSAT C BR1 25 Sep 01:09:48 01:13:36 30° 95° (E) 01:17:23 145.865
FO-29 25 Sep 01:21:11 01:24:42 18° 311° (NW) 01:28:22 435.910
UNISAT 6 25 Sep 01:23:25 01:27:01 23° 303° (WNW) 01:30:37 437.425
BEESAT 3 25 Sep 01:24:25 01:27:37 22° 8° (N) 01:30:48 437.485
AIST 2D 25 Sep 01:33:24 01:36:54 59° 288° (WNW) 01:40:23 435.315
50 SAT 25 Sep 01:34:03 01:37:18 56° 71° (ENE) 01:40:34 437.505
BEESAT 2 25 Sep 01:34:42 01:37:53 21° 359° (N) 01:41:05 435.950
DUCHIFAT 1 25 Sep 01:37:14 01:41:23 46° 99° (E) 01:45:29 145.980
Tancredo 1 25 Sep 01:38:04 01:39:25 13° 210° (SSW) 01:40:45 437.200
BEESAT 25 Sep 01:39:39 01:41:37 12° 45° (NE) 01:43:34 436.000
nSIGHT-1 25 Sep 01:42:30 01:45:30 34° 195° (SSW) 01:48:30 .
PCSat 25 Sep 01:44:02 01:47:19 16° 254° (WSW) 01:50:36 145.827
TIGRISAT 25 Sep 01:47:06 01:50:05 17° 308° (NW) 01:53:04 435.000
M-CUBED/EXP-1 PRIME 25 Sep 01:48:07 01:49:39 13° 95° (E) 01:51:10 437.505
UKube-1 25 Sep 01:48:09 01:52:18 49° 66° (ENE) 01:56:28 .
